Date String (YYYY-MM-DD hh:mm:ss) UTC,Instrument flags,Ambient pressure (hPa),Sample flow (lpm),Bypass flow (lpm),Sample temperature (°C),Ambient temperature (°C),ASC tube jacket temperature (°C),LED temperature (°C),Box temperature (°C),Sample RH (%),Span deviation,Mass concentration (μg/m³),Mass concentration (μg/m³),Mass concentration (μg/m³)
DateTimeUTC,F1_M11,P_M11,Q1_M11,Q2_M11,T1_M11,T2_M11,T3_M11,T4_M11,T5_M11,U1_M11,ZSPAN_M11,X0_M11,X2_M11,X1_M11
2022-04-21 16:00:00,,0824.1,5.00,0.00,28.2,27.3,00.0,36.9,30.0,11.3,0000.0,0020.62,0005.83,0002.63
2022-04-21 16:01:00,,0824.1,5.00,0.00,28.2,27.3,00.0,37.0,30.0,11.3,0000.0,0021.37,0005.76,0002.63
2022-04-21 16:02:00,,0824.1,5.02,0.00,28.2,27.3,00.0,37.0,30.0,11.3,0000.0,0021.36,0005.81,0002.64
2022-04-21 16:03:00,,0824.1,4.99,0.00,28.2,27.4,00.0,37.0,30.0,11.3,0000.0,0022.54,0005.84,0002.61
2022-04-21 16:04:00,,0824.1,5.00,0.00,28.2,27.4,00.0,37.0,30.1,11.6,0000.0,0023.74,0005.83,0002.59
2022-04-21 16:05:00,,0824.0,5.00,0.00,28.2,27.4,00.0,37.0,30.1,11.2,0000.0,0024.86,0005.84,0002.60
2022-04-21 16:06:00,,0824.1,5.01,0.00,28.3,27.4,00.0,37.0,30.1,11.3,0000.0,0025.05,0005.81,0002.60
2022-04-21 16:07:00,,0824.0,5.00,0.00,28.3,27.4,00.0,37.0,30.1,11.2,0000.0,0024.71,0005.82,0002.62
2022-04-21 16:08:00,,0824.1,5.00,0.00,28.3,27.5,00.0,37.1,30.1,11.2,0000.0,0025.35,0005.90,0002.64
2022-04-21 16:09:00,,0824.1,5.00,0.00,28.3,27.5,00.0,37.1,30.2,11.2,0000.0,0025.72,0005.87,0002.65
2022-04-21 16:10:00,,0824.0,4.99,0.00,28.3,27.5,00.0,37.1,30.1,11.2,0000.0,0024.75,0005.83,0002.65
2022-04-21 16:11:00,,0824.0,4.99,0.00,28.3,27.4,00.0,37.1,30.2,11.5,0000.0,0024.96,0005.90,0002.66
2022-04-21 16:12:00,,0824.1,5.01,0.00,28.3,27.4,00.0,37.1,30.2,11.4,0000.0,0025.21,0005.95,0002.69
2022-04-21 16:13:00,,0824.1,5.00,0.00,28.3,27.4,00.0,37.1,30.2,11.2,0000.0,0026.20,0005.99,0002.71
2022-04-21 16:14:00,,0824.0,5.01,0.00,28.3,27.5,00.0,37.1,30.1,11.2,0000.0,0025.26,0006.05,0002.75
2022-04-21 16:15:00,,0824.1,4.99,0.00,28.3,27.5,00.0,37.2,30.2,11.2,0000.0,0023.61,0006.09,0002.76
2022-04-21 16:16:00,,0824.1,5.00,0.00,28.4,27.5,00.0,37.2,30.2,11.1,0000.0,0022.62,0006.07,0002.79
2022-04-21 16:17:00,,0824.0,5.00,0.00,28.4,27.5,00.0,37.2,30.2,11.2,0000.0,0023.03,0006.10,0002.85
2022-04-21 16:18:00,,0824.0,5.00,0.00,28.4,27.6,00.0,37.2,30.2,11.2,0000.0,0022.81,0006.16,0002.91
2022-04-21 16:19:00,,0824.1,5.00,0.00,28.4,27.6,00.0,37.2,30.2,11.4,0000.0,0022.81,0006.07,0002.93
2022-04-21 16:20:00,,0824.1,4.99,0.00,28.4,27.6,00.0,37.2,30.3,11.3,0000.0,0022.65,0006.00,0002.93
2022-04-21 16:21:00,,0824.1,4.99,0.00,28.5,27.6,00.0,37.3,30.3,11.4,0000.0,0022.65,0006.03,0002.98
2022-04-21 16:22:00,,0824.1,5.00,0.00,28.5,27.6,00.0,37.3,30.3,11.2,0000.0,0022.29,0006.02,0003.02
2022-04-21 16:23:00,,0824.0,5.02,0.00,28.5,27.7,00.0,37.3,30.3,11.1,0000.0,0022.12,0006.05,0003.08
2022-04-21 16:24:00,,0824.0,5.00,0.00,28.5,27.7,00.0,37.3,30.3,11.1,0000.0,0021.88,0006.13,0003.14
2022-04-21 16:25:00,,0824.0,4.99,0.00,28.5,27.7,00.0,37.3,30.4,11.1,0000.0,0022.35,0006.16,0003.17
2022-04-21 16:26:00,,0823.9,5.02,0.00,28.5,27.7,00.0,37.3,30.4,11.3,0000.0,0022.58,0006.20,0003.22
2022-04-21 16:27:00,,0823.9,4.99,0.00,28.6,27.7,00.0,37.4,30.4,11.2,0000.0,0023.81,0006.32,0003.26
2022-04-21 16:28:00,,0823.9,5.00,0.00,28.6,27.7,00.0,37.4,30.4,11.0,0000.0,0023.67,0006.50,0003.33
2022-04-21 16:29:00,,0823.9,5.01,0.00,28.6,27.7,00.0,37.4,30.4,11.1,0000.0,0023.91,0006.56,0003.37
2022-04-21 16:30:00,,0823.9,5.00,0.00,28.6,27.8,00.0,37.4,30.4,11.1,0000.0,0023.59,0006.64,0003.40
2022-04-21 16:31:00,,0824.0,5.00,0.00,28.6,27.8,00.0,37.4,30.4,11.1,0000.0,0023.03,0006.73,0003.44
2022-04-21 16:32:00,,0824.0,5.00,0.00,28.6,27.8,00.0,37.4,30.5,11.0,0000.0,0023.13,0006.79,0003.46
2022-04-21 16:33:00,,0824.0,5.01,0.00,28.6,27.8,00.0,37.5,30.5,11.0,0000.0,0022.54,0006.77,0003.48
2022-04-21 16:34:00,,0823.9,5.00,0.00,28.7,27.8,00.0,37.5,30.5,11.2,0000.0,0023.70,0006.79,0003.48
2022-04-21 16:35:00,,0824.0,5.00,0.00,28.7,27.8,00.0,37.5,30.5,11.1,0000.0,0023.04,0006.74,0003.47
2022-04-21 16:36:00,,0824.0,4.99,0.00,28.7,27.8,00.0,37.5,30.5,11.2,0000.0,0022.86,0006.72,0003.46
2022-04-21 16:37:00,,0824.0,5.00,0.00,28.7,27.8,00.0,37.5,30.5,11.3,0000.0,0022.90,0006.68,0003.47
2022-04-21 16:38:00,,0824.0,4.99,0.00,28.7,27.9,00.0,37.5,30.5,11.5,0000.0,0023.84,0006.63,0003.47
2022-04-21 16:39:00,,0824.0,5.02,0.00,28.7,27.9,00.0,37.5,30.5,11.1,0000.0,0023.18,0006.50,0003.44
2022-04-21 16:40:00,,0824.0,4.99,0.00,28.7,27.9,00.0,37.5,30.5,11.1,0000.0,0022.10,0006.41,0003.41
2022-04-21 16:41:00,,0824.0,4.99,0.00,28.7,27.9,00.0,37.6,30.6,10.9,0000.0,0022.42,0006.37,0003.39
2022-04-21 16:42:00,,0824.0,5.00,0.00,28.8,27.9,00.0,37.6,30.6,11.0,0000.0,0023.17,0006.39,0003.39
2022-04-21 16:43:00,,0824.0,4.99,0.00,28.8,27.9,00.0,37.6,30.6,11.1,0000.0,0024.08,0006.35,0003.40
2022-04-21 16:44:00,,0824.0,5.00,0.00,28.8,27.9,00.0,37.6,30.6,10.9,0000.0,0026.49,0006.42,0003.40
2022-04-21 16:45:00,,0824.0,5.01,0.00,28.8,28.0,00.0,37.6,30.7,10.9,0000.0,0025.97,0006.46,0003.42
2022-04-21 16:46:00,,0824.0,5.01,0.00,28.9,28.0,00.0,37.6,30.7,10.9,0000.0,0025.37,0006.44,0003.42
2022-04-21 16:47:00,,0824.0,5.00,0.00,28.9,28.0,00.0,37.7,30.7,10.9,0000.0,0024.68,0006.36,0003.43
2022-04-21 16:48:00,,0824.0,4.99,0.00,28.9,28.0,00.0,37.7,30.7,10.9,0000.0,0024.22,0006.38,0003.44
2022-04-21 16:49:00,,0824.0,5.01,0.00,28.9,28.1,00.0,37.7,30.7,11.2,0000.0,0023.39,0006.40,0003.46
2022-04-21 16:50:00,,0824.0,5.00,0.00,28.9,28.1,00.0,37.7,30.8,10.9,0000.0,0023.50,0006.41,0003.49
2022-04-21 16:51:00,,0824.0,5.01,0.00,28.9,28.1,00.0,37.7,30.8,10.9,0000.0,0023.90,0006.46,0003.50
2022-04-21 16:52:00,,0824.0,4.99,0.00,28.9,28.1,00.0,37.7,30.7,10.9,0000.0,0024.41,0006.53,0003.52
2022-04-21 16:53:00,,0823.9,4.99,0.00,29.0,28.1,00.0,37.8,30.8,11.2,0000.0,0024.59,0006.57,0003.55
2022-04-21 16:54:00,,0823.9,4.99,0.00,29.0,28.1,00.0,37.8,30.8,11.6,0000.0,0023.82,0006.57,0003.57
2022-04-21 16:55:00,,0824.0,5.01,0.00,29.0,28.2,00.0,37.8,30.8,11.2,0000.0,0021.88,0006.55,0003.60
2022-04-21 16:56:00,,0823.9,5.00,0.00,29.0,28.2,00.0,37.8,30.8,11.3,0000.0,0022.23,0006.58,0003.62
2022-04-21 16:57:00,,0823.9,4.99,0.00,29.0,28.2,00.0,37.8,30.8,11.2,0000.0,0023.04,0006.71,0003.67
2022-04-21 16:58:00,,0823.9,5.01,0.00,29.1,28.2,00.0,37.8,30.9,11.0,0000.0,0023.98,0006.79,0003.71
2022-04-21 16:59:00,,0824.0,4.99,0.00,29.1,28.2,00.0,37.9,30.9,10.9,0000.0,0024.30,0006.86,0003.74
